Blytheville Muni Airport, AR

9:17 PM CDT on April 22, 2018 (GMT -0500)
Blytheville Municipal

Weather History for KHKA - February, 2012

Change the Weather History Date:

Monday, February 27, 2012

  Actual Average Record
Temperature  
Mean Temperature 55 °F -  
Max Temperature 66 °F 54 °F 78 °F (1954)
Min Temperature 44 °F 35 °F 8 °F (1934)
Degree Days  
Heating Degree Days 10    
Growing Degree Days 5 (Base 50)    
Moisture  
Dew Point 36 °F    
Average Humidity 52    
Maximum Humidity 71    
Minimum Humidity 37    
Precipitation  
Precipitation 0.00 in - - ()
Sea Level Pressure  
Sea Level Pressure 30.34 in    
Wind  
Wind Speed 8 mph (ENE)    
Max Wind Speed 12 mph    
Max Gust Speed -    
Visibility 10 miles    
Events      
Averages and records for this station are not official NWS values.
T = Trace of Precipitation, MM = Missing Value Source: NWS Daily Summary

Daily Weather History Graph

Daily Weather History Graph

Search for Another Location

Airport or City:

Astronomy

Feb. 27, 2012 Rise Set
Actual Time 6:32 AM CST 5:52 PM CST
Civil Twilight 6:06 AM CST 6:17 PM CST
Nautical Twilight 5:37 AM CST 6:47 PM CST
Astronomical Twilight 5:07 AM CST 7:17 PM CST
Moon 9:14 AM CST (2/27) 11:32 PM CST (2/27)
Length of Visible Light 12h 10m
Length of Day
11h 19m
Waxing Crescent, 29% of the Moon is Illuminated
Feb 27
Waxing Crescent
Feb 29
First Quarter
Mar 8
Full
Mar 14
Last Quarter
Mar 22
New

Hourly Weather History & Observations

Time (CST) Temp. Windchill Dew Point Humidity Pressure Visibility Wind Dir Wind Speed Gust Speed Precip Events Conditions
12:53 AM 48.0 °F - 30.0 °F 50% 30.26 in 10.0 mi South 5.8 mph - N/A   Clear
1:53 AM 46.9 °F - 30.9 °F 54% 30.27 in 10.0 mi South 5.8 mph - N/A   Clear
2:53 AM 46.9 °F - 32.0 °F 56% 30.27 in 10.0 mi South 6.9 mph - N/A   Partly Cloudy
3:53 AM 45.0 °F 41.2 °F 33.1 °F 63% 30.29 in 10.0 mi South 6.9 mph - N/A   Partly Cloudy
4:53 AM 45.0 °F 40.1 °F 34.0 °F 65% 30.30 in 10.0 mi South 9.2 mph - N/A   Clear
5:53 AM 44.1 °F 40.1 °F 34.0 °F 68% 30.31 in 10.0 mi South 6.9 mph - N/A   Clear
6:53 AM 45.0 °F 41.2 °F 36.0 °F 71% 30.33 in 10.0 mi South 6.9 mph - N/A   Clear
7:53 AM 48.9 °F - 37.9 °F 66% 30.36 in 10.0 mi SSW 6.9 mph - N/A   Clear
8:53 AM 54.0 °F - 41.0 °F 62% 30.37 in 10.0 mi SW 8.1 mph - N/A   Clear
9:53 AM 57.0 °F - 39.9 °F 53% 30.38 in 10.0 mi West 5.8 mph - N/A   Clear
10:53 AM 62.1 °F - 39.0 °F 43% 30.39 in 10.0 mi NNE 4.6 mph - N/A   Clear
11:53 AM 64.0 °F - 37.9 °F 38% 30.37 in 10.0 mi NNE 8.1 mph - N/A   Clear
12:53 PM 66.0 °F - 39.0 °F 37% 30.35 in 10.0 mi NE 11.5 mph - N/A   Clear
1:53 PM 64.9 °F - 37.9 °F 37% 30.34 in 10.0 mi NNE 11.5 mph - N/A   Clear
2:53 PM 64.9 °F - 37.9 °F 37% 30.33 in 10.0 mi NNE 11.5 mph - N/A   Clear
3:53 PM 64.9 °F - 37.9 °F 37% 30.33 in 10.0 mi NE 11.5 mph - N/A   Clear
4:53 PM 63.0 °F - 37.0 °F 38% 30.33 in 10.0 mi NNE 11.5 mph - N/A   Clear
5:53 PM 57.0 °F - 39.0 °F 51% 30.35 in 10.0 mi NE 8.1 mph - N/A   Clear
6:53 PM 53.1 °F - 37.0 °F 55% 30.36 in 10.0 mi NE 8.1 mph - N/A   Clear
7:53 PM 50.0 °F - 36.0 °F 59% 30.36 in 10.0 mi NE 9.2 mph - N/A   Clear
8:53 PM 50.0 °F - 33.1 °F 52% 30.37 in 10.0 mi NE 9.2 mph - N/A   Clear
9:53 PM 48.9 °F - 33.1 °F 54% 30.37 in 10.0 mi NE 10.4 mph - N/A   Clear
10:53 PM 48.0 °F - 32.0 °F 54% 30.36 in 10.0 mi ENE 10.4 mph - N/A   Clear
11:53 PM 46.0 °F 42.5 °F 32.0 °F 58% 30.35 in 10.0 mi ENE 6.9 mph - N/A   Clear